Regional Weather Roundup
Issued by NWS

Home | Current Version | Previous Version | Text Only | Print | Product List | Glossary On
Versions: 1 2 3 4 5 6 7 8 9 10 11 12 13 14 15 16 17 18 19 20 21 22 23 24 25 26 27 28 29 30 31 32 33 34 35 36 37 38 39 40 41 42 43 44 45 46 47 48 49 50
000
ASUS43 KTOP 231008
RWRKS

WEATHER ROUNDUP FOR KANSAS
NATIONAL WEATHER SERVICE GOODLAND KS
500 AM CDT TUE AUG 23 2016

NOTE:  "FAIR" INDICATES FEW OR NO CLOUDS BELOW 12,000 FEET WITH NO
SIGNIFICANT WEATHER AND/OR OBSTRUCTIONS TO VISIBILITY.

KSZ001>006-013>018-027>032-041>047-231100-
NORTHWEST KANSAS

CITY           SKY/WX    TMP DP  RH WIND       PRES   REMARKS
GOODLAND       CLEAR     65  60  84 S12       29.84F
HAYS           CLEAR     73  61  64 S18       29.89F
HILL CITY      PTCLDY    73  65  75 S13       29.84F
RUSSELL        CLEAR     72  67  84 S17       29.89F
$$

KSZ061>065-074>080-084>089-231100-
SOUTHWEST KANSAS

CITY           SKY/WX    TMP DP  RH WIND       PRES   REMARKS
DODGE CITY     MOCLDY    71  65  81 S15       29.92F
ELKHART          N/A     70  58  66 SW16        N/A
GARDEN CITY    CLOUDY    69  63  81 S15       29.89F
GREAT BEND     MOCLDY    73  63  68 S15G21    29.92S
LIBERAL        MOCLDY    72  63  73 SE16G25   29.95S
PRATT          PTCLDY    69  66  91 S17       29.95F
$$

KSZ066>073-081>083-090>101-231100-
SOUTHEAST KANSAS

CITY           SKY/WX    TMP DP  RH WIND       PRES   REMARKS
CHANUTE        CLOUDY    72  68  87 S8        30.04S
COFFEYVILLE    CLOUDY    74  70  87 S7        30.04F
HUTCHINSON     MOCLDY    73  70  90 S16       29.95F
MEDICINE LODGE   N/A     73  69  87 SE7       29.96S
NEWTON         CLOUDY    72  70  93 S15       29.99F
PARSONS        CLOUDY    73  68  84 S6        30.05F
WICHITA INTL   MOCLDY    73  71  93 S10       29.98F
WICHITA JABRA  CLOUDY    73  71  93 S13       29.99F
WICHITA MCCONL CLOUDY    73  70  92 S12       29.99S
WINFIELD       MOCLDY    73  71  93 S12       30.02S
$$

KSZ007>012-019>026-033>040-048>060-102>105-231100-
NORTHEAST KANSAS

CITY           SKY/WX    TMP DP  RH WIND       PRES   REMARKS
CONCORDIA      CLEAR     69  66  90 S16       29.92F
EMPORIA        CLOUDY    71  68  90 S14       30.00F
LAWRENCE       CLOUDY    66  64  93 SE8       30.03S
MANHATTAN      MOCLDY    72  69  90 S10       29.96F
MARYSVILLE     CLEAR     68  64  88 S7        29.96F
OLATHE IND     MOCLDY    67  64  90 S8        30.06S
OLATHE EXE     MOCLDY    64  62  93 S7        30.06S
SALINA         CLEAR     73  69  87 S13       29.93F
TOPEKA BILLARD CLOUDY    70  65  84 S9        30.01S
TOPEKA FORBES  CLOUDY    70  66  87 SE7       30.02S
$$




USA.gov is the U.S. government's official web portal to all federal, state and local government web resources and services.